Location: Pagani
(40.7500°N, 14.6167°E)
Time: 07:09:05
(UTC+00:00)

Cosmos 2227 Rocket - Pass Details

Date: 15 May 2026
Orbit: 837 x 844 km, 71.0° (Epoch: 5 June)

Event Time Altitude Azimuth Distance (km) Brightness Sun altitude
Exits shadow 22:55:54 42° 71° (ENE) 1,197 3.0 -30.2°
Drops below altitude 10° 23:00:07 10° 34° (NE) 2,470 5.3 -30.2°
Sets 23:02:38 0° 30° (NNE) 3,409 6.2 -30.2°
